FW1564 Weather Reports


Display with metric or nautical units.
time (UTC)temp
F
wind
direction
speed
MPH
gust
MPH
rain 1hr
in
rain 24hr
in
rain mn
in
humidity
%
barometer
mb
20260508052342 52 19 4.0 10.0 0.09 0.79 0.79 96 1006.3
20260508051342 53 32 4.0 14.0 0.07 0.77 0.77 97 1006.5
20260508050343 54 333 4.0 9.0 0.08 0.77 0.77 97 1006.4
20260508045342 54 39 0.0 6.0 0.04 0.72 0.72 97 1006.2
20260508044344 54 53 3.0 4.0 0.06 0.70 0.70 97 1006.4
20260508043342 55 123 3.0 7.0 0.10 0.70 0.70 97 1006.3
20260508042342 55 159 2.0 7.0 0.17 0.70 0.70 97 1006.4
20260508041342 55 346 1.0 7.0 0.18 0.70 0.70 97 1006.8
20260508040342 55 160 3.0 7.0 0.17 0.69 0.69 97 1006.9
20260508035342 55 91 5.0 8.0 0.17 0.68 0.68 97 1006.9
20260508034342 55 256 3.0 14.0 0.14 0.64 0.64 97 1007.1
20260508033343 55 351 2.0 10.0 0.10 0.60 0.60 97 1007.0
20260508032342 55 172 3.0 8.0 0.04 0.53 0.53 97 1007.3
20260508031342 55 233 2.0 8.0 0.13 0.52 0.52 97 1007.3
20260508030342 54 15 2.0 9.0 0.22 0.52 0.52 96 1007.5
20260508025342 55 242 4.0 9.0 0.24 0.51 0.51 96 1007.6
20260508024827 54 310 2.0 15.0 0.25 0.50 0.50 96 1007.7
20260508023342 54 180 6.0 11.0 0.29 0.50 0.50 96 1008.0
20260508022342 54 34 2.0 6.0 0.32 0.49 0.49 95 1008.1
20260508021342 54 247 1.0 8.0 0.24 0.39 0.39 95 1008.4
20260508020342 53 122 1.0 7.0 0.16 0.30 0.30 95 1008.4
20260508015342 53 43 1.0 7.0 0.13 0.27 0.27 94 1008.8
20260508014342 54 97 6.0 9.0 0.12 0.25 0.25 94 1009.2
20260508013342 55 24 5.0 8.0 0.08 0.21 0.21 94 1009.2
20260508012342 54 10 1.0 6.0 0.05 0.17 0.17 94 1009.2
20260508011342 55 77 5.0 7.0 0.05 0.15 0.15 93 1009.4
20260508010823 54 43 1.0 4.0 0.04 0.14 0.14 94 1009.6
20260508005342 55 172 2.0 8.0 0.04 0.14 0.14 94 1009.4
20260508004342 55 231 2.0 4.0 0.03 0.13 0.13 93 1009.7
20260508003342 54 80 3.0 4.0 0.04 0.13 0.13 93 1010.1
20260508002342 54 332 2.0 4.0 0.07 0.12 0.12 93 1010.1
20260508001342 54 258 0.0 3.0 0.10 0.10 0.10 93 1010.1
20260508000346 54 25 0.0 4.0 0.10 0.10 0.10 93 1010.0
20260507235342 53 357 1.0 7.0 0.10 0.10 0.10 92 1010.4
20260507234342 53 345 2.0 4.0 0.10 0.10 0.10 92 1010.6
20260507233342 53 357 1.0 4.0 0.09 0.09 0.09 91 1010.6
20260507232329 53 340 2.0 4.0 0.05 0.05 0.05 89 1010.7
20260507231330 54 346 2.0 3.0 0.00 0.00 0.00 86 1010.6
20260507230343 53 326 0.0 2.0 0.00 0.00 0.00 86 1010.9
20260507225330 53 330 2.0 3.0 0.00 0.00 0.00 86 1010.9
20260507224330 53 22 0.0 6.0 0.00 0.00 0.00 86 1011.1
20260507223330 53 325 2.0 4.0 0.00 0.00 0.00 86 1010.9
20260507222330 54 353 0.0 1.0 0.00 0.00 0.00 82 1011.0
20260507221331 55 236 0.0 2.0 0.00 0.00 0.00 78 1011.1
20260507220326 54 75 0.0 2.0 0.00 0.00 0.00 76 1011.1
20260507215326 54 52 3.0 6.0 0.00 0.00 0.00 77 1011.0
20260507214319 54 282 0.0 2.0 0.00 0.00 0.00 77 1011.2
20260507213320 54 182 0.0 3.0 0.00 0.00 0.00 76 1011.3
20260507212318 54 336 1.0 3.0 0.00 0.00 0.00 76 1011.4
20260507211322 54 141 1.0 3.0 0.00 0.00 0.00 75 1011.4
20260507210812 53 4 2.0 4.0 0.00 0.00 0.00 75 1011.4
20260507205801 53 11 2.0 4.0 0.00 0.00 0.00 76 1011.4
20260507204320 53 337 3.0 6.0 0.00 0.00 0.00 76 1011.4
20260507203321 53 343 2.0 3.0 0.00 0.00 0.00 75 1011.6
20260507202754 53 334 2.0 4.0 0.00 0.00 0.00 75 1011.2
20260507201324 53 19 0.0 3.0 0.00 0.00 0.00 74 1011.4
20260507200321 54 293 0.0 1.0 0.00 0.00 0.00 75 1011.3
20260507195322 54 357 1.0 6.0 0.00 0.00 0.00 75 1011.3
20260507194319 55 336 1.0 3.0 0.00 0.00 0.00 75 1011.3
20260507193320 55 271 1.0 3.0 0.00 0.00 0.00 73 1011.3
20260507192322 56 354 0.0 2.0 0.00 0.00 0.00 73 1011.2
20260507191806 56 257 0.0 3.0 0.00 0.00 0.00 73 1011.2
20260507190320 56 298 0.0 2.0 0.00 0.00 0.00 74 1011.3
20260507185745 56 67 1.0 4.0 0.00 0.00 0.00 73 1011.5
20260507184307 56 127 2.0 4.0 0.00 0.00 0.00 73 1011.5
20260507183255 56 126 1.0 7.0 0.00 0.00 0.00 72 1011.4
20260507182243 57 114 4.0 7.0 0.00 0.00 0.00 72 1011.4
20260507181243 57 165 2.0 6.0 0.00 0.00 0.00 72 1011.4
20260507180243 57 131 3.0 8.0 0.00 0.00 0.00 71 1011.3
20260507175242 57 120 3.0 7.0 0.00 0.00 0.00 71 1011.4
20260507174241 56 108 1.0 9.0 0.00 0.00 0.00 72 1011.3
20260507173242 56 243 2.0 6.0 0.00 0.00 0.00 73 1011.4
20260507172244 56 142 3.0 8.0 0.00 0.00 0.00 72 1011.4
20260507171242 57 152 4.0 7.0 0.00 0.00 0.00 72 1011.4
20260507170737 58 282 1.0 8.0 0.00 0.00 0.00 71 1011.2
20260507165242 59 168 3.0 8.0 0.00 0.00 0.00 70 1011.2
20260507165152 59 120 4.0 9.0 0.00 0.00 0.00 70 1011.2
20260507163242 60 73 8.0 10.0 0.00 0.00 0.00 67 1011.4
20260507162242 60 253 2.0 11.0 0.00 0.00 0.00 70 1011.5
20260507161242 59 140 5.0 13.0 0.00 0.00 0.00 71 1011.7
20260507160725 59 112 4.0 13.0 0.00 0.00 0.00 68 1011.6
20260507155243 59 125 2.0 8.0 0.00 0.00 0.00 67 1011.7
20260507154725 58 246 0.0 6.0 0.00 0.00 0.00 64 1011.6
20260507153244 58 182 1.0 7.0 0.00 0.00 0.00 63 1011.7
20260507152244 58 147 3.0 4.0 0.00 0.00 0.00 64 1011.6
20260507151243 58 168 2.0 7.0 0.00 0.00 0.00 63 1011.7
20260507150801 57 175 2.0 4.0 0.00 0.00 0.00 66 1011.7
20260507145242 57 132 1.0 7.0 0.00 0.00 0.00 68 1012.3
20260507144242 58 99 3.0 8.0 0.00 0.00 0.00 66 1012.4
20260507143242 57 189 5.0 7.0 0.00 0.00 0.00 63 1012.6
20260507142242 57 135 2.0 7.0 0.00 0.00 0.00 63 1012.8
20260507141242 58 116 5.0 8.0 0.00 0.00 0.00 62 1013.0
20260507140242 58 129 2.0 6.0 0.00 0.00 0.00 62 1013.0
20260507135242 58 68 3.0 7.0 0.00 0.00 0.00 60 1013.1
20260507134242 59 110 6.0 7.0 0.00 0.00 0.00 60 1013.1
20260507133243 59 188 2.0 8.0 0.00 0.00 0.00 61 1013.1
20260507132242 59 159 1.0 7.0 0.00 0.00 0.00 61 1013.3
20260507131242 61 81 2.0 4.0 0.00 0.00 0.00 57 1013.3
20260507130242 60 196 1.0 9.0 0.00 0.00 0.00 59 1013.5
20260507125725 60 151 2.0 10.0 0.00 0.00 0.00 59 1013.7
20260507124242 60 127 3.0 8.0 0.00 0.00 0.00 59 1013.9
20260507123717 60 158 2.0 10.0 0.00 0.00 0.00 59 1013.9
20260507122242 60 89 2.0 11.0 0.00 0.00 0.00 60 1014.0
20260507121241 60 155 3.0 7.0 0.00 0.00 0.00 63 1014.0
20260507120242 58 139 5.0 10.0 0.00 0.00 0.00 67 1014.3
20260507115242 56 162 1.0 6.0 0.00 0.00 0.00 79 1014.5
20260507114242 56 171 3.0 7.0 0.00 0.00 0.00 80 1014.4
20260507113242 56 141 3.0 4.0 0.00 0.00 0.00 79 1014.2
20260507112729 56 126 2.0 7.0 0.00 0.00 0.00 79 1014.4
20260507111242 55 193 1.0 7.0 0.00 0.00 0.00 79 1014.3
20260507110733 55 221 0.0 7.0 0.00 0.00 0.00 79 1014.5
20260507105243 55 224 3.0 6.0 0.00 0.00 0.00 78 1014.6
20260507104242 57 140 5.0 8.0 0.00 0.00 0.00 78 1014.4
20260507103723 57 157 3.0 7.0 0.00 0.00 0.00 76 1014.3
20260507102242 56 129 2.0 7.0 0.00 0.00 0.00 78 1014.2
20260507101714 57 130 4.0 6.0 0.00 0.00 0.00 75 1014.2
20260507100243 56 96 2.0 4.0 0.00 0.00 0.00 77 1014.2
20260507095242 56 135 2.0 4.0 0.00 0.00 0.00 79 1014.1
20260507094242 56 149 4.0 7.0 0.00 0.00 0.00 80 1014.3
20260507093731 56 105 2.0 3.0 0.00 0.00 0.00 82 1014.1
20260507093151 55 207 3.0 4.0 0.00 0.00 0.00 82 1014.0
20260507091242 56 121 2.0 6.0 0.00 0.00 0.00 83 1014.2
20260507090243 56 153 1.0 7.0 0.00 0.00 0.00 84 1014.3
20260507085242 55 116 1.0 3.0 0.00 0.00 0.00 84 1014.0
20260507084242 55 90 0.0 4.0 0.00 0.00 0.00 84 1014.2
20260507083242 55 175 2.0 6.0 0.00 0.00 0.00 85 1014.1
20260507082242 55 176 1.0 3.0 0.00 0.00 0.00 84 1013.9
20260507081242 55 121 0.0 4.0 0.00 0.00 0.00 83 1013.9
20260507080242 55 78 1.0 2.0 0.00 0.00 0.00 82 1014.0
20260507075242 54 1 0.0 2.0 0.00 0.00 0.00 81 1013.9
20260507074724 54 355 0.0 0.0 0.00 0.00 0.00 80 1014.0
20260507073242 53 334 0.0 2.0 0.00 0.00 0.00 80 1014.0
20260507072245 53 1 1.0 2.0 0.00 0.00 0.00 78 1013.8
20260507071243 53 331 1.0 3.0 0.00 0.00 0.00 80 1013.7
20260507070716 53 12 2.0 3.0 0.00 0.00 0.00 79 1013.7
20260507065731 53 353 1.0 2.0 0.00 0.00 0.00 79 1013.5
20260507064242 53 355 1.0 4.0 0.00 0.00 0.00 77 1013.3
20260507063243 53 344 2.0 3.0 0.00 0.00 0.00 76 1013.3
20260507062242 53 12 2.0 4.0 0.00 0.00 0.00 77 1013.0
20260507061243 53 334 3.0 4.0 0.00 0.00 0.00 78 1013.1
20260507060721 52 341 3.0 6.0 0.00 0.00 0.00 78 1013.2
20260507055247 52 331 4.0 6.0 0.00 0.00 0.00 77 1013.1
20260507054242 52 308 4.0 6.0 0.00 0.00 0.00 77 1013.3
20260507053715 52 318 3.0 6.0 0.00 0.00 0.00 76 1013.3